This is the latest recevied weather packets stored in our database for station/object K9NZF-1. If no packets are shown the sender has not sent any weather packets the latest 10 day(s).
| Time | Temp. | Humidity | Pressure | Rain* | Wind** | Luminosity | Snow |
|---|---|---|---|---|---|---|---|
| 1778164657 | 9.44° C | 61% | 1015 hPa | 0 mm | - | 731 W/m² | - |
| 1778164599 | 9.44° C | 62% | 1015 hPa | 0 mm | - | 728 W/m² | - |
| 1778164537 | 9.44° C | 59% | 1015.1 hPa | 0 mm | - | 724 W/m² | - |
| 1778164478 | 9.44° C | 61% | 1015.1 hPa | 0 mm | - | 721 W/m² | - |
| 1778164417 | 9.44° C | 64% | 1015.1 hPa | 0 mm | - | 719 W/m² | - |
| 1778164357 | 9.44° C | 65% | 1015.1 hPa | 0 mm | - | 717 W/m² | - |
| 1778164297 | 8.89° C | 65% | 1015.1 hPa | 0 mm | - | 717 W/m² | - |
| 1778164238 | 8.89° C | 63% | 1015.1 hPa | 0 mm | - | 710 W/m² | - |
| 1778164177 | 8.89° C | 62% | 1015.1 hPa | 0 mm | - | 708 W/m² | - |
| 1778164117 | 8.89° C | 63% | 1015.1 hPa | 0 mm | - | 700 W/m² | - |
| 1778164059 | 8.89° C | 63% | 1015.1 hPa | 0 mm | - | 700 W/m² | - |
| 1778163998 | 8.89° C | 63% | 1015.1 hPa | 0 mm | - | 700 W/m² | - |
| 1778163939 | 8.89° C | 63% | 1015.1 hPa | 0 mm | - | 700 W/m² | - |
| 1778163877 | 8.89° C | 64% | 1015.1 hPa | 0 mm | - | 696 W/m² | - |
| 1778163817 | 8.89° C | 65% | 1015.1 hPa | 0 mm | - | 691 W/m² | - |
| 1778163764 | 8.89° C | 64% | 1015.1 hPa | 0 mm | - | 612 W/m² | - |
| 1778163699 | 8.89° C | 65% | 1015.1 hPa | 0 mm | - | 515 W/m² | - |
| 1778163638 | 8.89° C | 65% | 1015.1 hPa | 0 mm | - | 578 W/m² | - |
| 1778163577 | 8.89° C | 63% | 1015.1 hPa | 0 mm | - | 578 W/m² | - |
| 1778163517 | 8.89° C | 63% | 1015.1 hPa | 0 mm | - | 580 W/m² | - |
| 1778163457 | 8.89° C | 65% | 1015.1 hPa | 0 mm | - | 582 W/m² | - |
| 1778163397 | 8.89° C | 67% | 1015.1 hPa | 0 mm | - | 568 W/m² | - |
| 1778163340 | 8.89° C | 69% | 1015.2 hPa | 0 mm | - | 482 W/m² | - |
| 1778163277 | 8.33° C | 66% | 1015.1 hPa | 0 mm | - | 656 W/m² | - |
| 1778163217 | 8.33° C | 67% | 1015.2 hPa | 0 mm | - | 656 W/m² | - |
* Rain latest hour (hover to see other rain measurements)
** Current wind speed in m/s (hover to see current wind gust speed)